Location: Unspecified
(40.9447°N, 78.9903°W)
Time: 10:15:32
(UTC-04:00)

CZ-3 Stage 3 - Pass Details

Date: 28 July 2021
Orbit: 451 x 34732 km, 30.4° (Epoch: 19 September)

Event Time Altitude Azimuth Distance (km) Brightness Sun altitude
Rises 11:27:47 0° 237° (WSW) 8,420 7.7 57.0°
Reaches altitude 10° 11:44:02 10° 211° (SSW) 12,043 8.8 59.5°
Drops below altitude 10° 14:10:52 10° 186° (S) 34,748 11.4 65.6°
Maximum altitude 20:55:14 19° 173° (S) 7,697 7.3 -4.1°
Enters shadow 21:07:49 - 126° (SE) 4,876 5.9 -6.1°
